Flag for Switzerland Weather past 2 weeks in Aarau, Aargau, Switzerland

Now
35 °F

Chilly.


Feels Like: 35 °F
Forecast: 31 / 38 °F
Wind: 2 mph from Southwest

Location: Wynau

Current Time: Jan 29, 2015 at 12:07:35 PM

Latest Report: Jan 29, 2015 at 11:00 AM


Visibility: N/A

Pressure: 29.58 "Hg

Humidity: 97%

Dew point: 34 °F

Location of AarauLocation

Historic Weather in Aarau — Graph

°F

Aarau temperature yesterday

Maximum temperature yesterday: 36 °F (at 9:00 PM)
Minimum temperature yesterday: 23 °F (at 5:00 AM)
Average temperature yesterday: 31 °F

Past Weeks' High & Low Weather Summary

 TemperatureHumidityPressure
High47 °F (Jan 14, 4:00 PM)100% (Jan 15, 1:00 AM)30.47 "Hg (Jan 15, 1:00 AM)
Low23 °F (Jan 28, 5:00 AM)63% (Jan 15, 3:00 PM)29.61 "Hg (Jan 29, 10:00 AM)
Average33 °F91%30.07 "Hg
* Reported Jan 14 10:00 AM — Jan 29 10:00 AM, Aarau, Weather by CustomWeather, © 2014

Note: Actual official high and low records may vary slightly from our data, if they occured in-between our weather recording intervals... More about our weather records

Advertising

Aarau weather history for previous 24 hours

 ConditionsComfort  
Time TempWeatherWind HumidityBarometerVisibility
10:00 AM
Jan 29
34 °FChilly.3 mph96%29.61 "HgN/A
9:00 AM33 °FChilly.2 mph97%29.64 "HgN/A
8:00 AM33 °FChilly.3 mph97%29.66 "HgN/A
7:00 AM34 °FChilly.3 mph89%29.67 "HgN/A
6:00 AM35 °FChilly.6 mph94%29.69 "HgN/A
5:00 AM35 °FChilly.5 mph94%29.69 "HgN/A
3:00 AM35 °FChilly.7 mph91%29.71 "HgN/A
2:00 AM36 °FChilly.12 mph91%29.69 "HgN/A
1:00 AM36 °FChilly.14 mph90%29.71 "HgN/A
12:00 AM35 °FChilly.14 mph90%29.74 "HgN/A
11:00 PM
Jan 28
35 °FChilly.15 mph91%29.78 "HgN/A
10:00 PM35 °FChilly.13 mph90%29.81 "HgN/A
9:00 PM36 °FChilly.14 mph84%29.84 "HgN/A
8:00 PM36 °FChilly.18 mph81%29.86 "HgN/A
7:00 PM35 °FChilly.9 mph77%29.91 "HgN/A
6:00 PM35 °FChilly.10 mph77%29.94 "HgN/A
5:00 PM35 °FChilly.6 mph79%29.99 "HgN/A
4:00 PM35 °FChilly.8 mph77%30.00 "HgN/A
3:00 PM35 °FChilly.6 mph76%30.04 "HgN/A
2:00 PM34 °FChilly.9 mph77%30.11 "HgN/A
1:00 PM33 °FChilly.6 mph83%30.14 "HgN/A
12:00 PM32 °FChilly.6 mph84%30.18 "HgN/A
Weather by CustomWeather, © 2014

See weather overviewHow to use our weather pages